Voltar ao catálogo

STARLINK-35755

AtivoComunicaçõesVLEO
NORAD 67163·PAYLOAD·🇺🇸 United States

Lançado Dec 17, 2025 de Cape Canaveral Space Force Station

Loading…

Próximas Passagens (próximas 24 horas)

TLE

AtualizadoSource: CelesTrak SupGP

Época: Sep 15, 2026, 03:09 UTC

1 67163C 25303A   26258.13173611  .00035922  00000+0  13007-2 0  2583
2 67163  43.0033 320.8375 0001809 265.1718 252.7121 15.27569574    16

Acompanhe STARLINK-35755 em tempo real com AllMySat

Download on the App Store